Year,Month,Day,Hour,Minute,Value (Times are PST for temperature in C)
2015,10,15,00,00,7.40
2015,10,15,00,01,7.40
2015,10,15,00,02,7.40
2015,10,15,00,03,7.30
2015,10,15,00,04,7.30
2015,10,15,00,05,7.30
2015,10,15,00,06,7.30
2015,10,15,00,07,7.20
2015,10,15,00,08,7.20
2015,10,15,00,09,7.20
2015,10,15,00,10,7.20
2015,10,15,00,11,7.20
2015,10,15,00,12,7.20
2015,10,15,00,13,7.10
2015,10,15,00,14,7.10
2015,10,15,00,15,7.10
2015,10,15,00,16,7.10
2015,10,15,00,17,7.10
2015,10,15,00,18,7.00
2015,10,15,00,19,7.00
2015,10,15,00,20,7.00
2015,10,15,00,21,7.00
2015,10,15,00,22,7.00
2015,10,15,00,23,7.00
2015,10,15,00,24,7.10
2015,10,15,00,25,7.10
2015,10,15,00,26,7.10
2015,10,15,00,27,7.10
2015,10,15,00,28,7.10
2015,10,15,00,29,7.10
2015,10,15,00,30,7.10
2015,10,15,00,31,7.10
2015,10,15,00,32,7.00
2015,10,15,00,33,7.00
2015,10,15,00,34,7.00
2015,10,15,00,35,7.00
2015,10,15,00,36,7.00
2015,10,15,00,37,7.00
2015,10,15,00,38,7.00
2015,10,15,00,39,6.90
2015,10,15,00,40,6.90
2015,10,15,00,41,6.90
2015,10,15,00,42,6.90
2015,10,15,00,43,6.90
2015,10,15,00,44,6.90
2015,10,15,00,45,6.90
2015,10,15,00,46,6.90
2015,10,15,00,47,6.90
2015,10,15,00,48,6.90
2015,10,15,00,49,6.90
2015,10,15,00,50,6.80
2015,10,15,00,51,6.80
2015,10,15,00,52,6.80
2015,10,15,00,53,6.80
2015,10,15,00,54,6.80
2015,10,15,00,55,6.80
2015,10,15,00,56,6.80
2015,10,15,00,57,6.80
2015,10,15,00,58,6.80
2015,10,15,00,59,6.80
2015,10,15,01,00,6.70
2015,10,15,01,01,6.70
2015,10,15,01,02,6.70
2015,10,15,01,03,6.70
2015,10,15,01,04,6.70
2015,10,15,01,05,6.70
2015,10,15,01,06,6.70
2015,10,15,01,07,6.60
2015,10,15,01,08,6.60
2015,10,15,01,09,6.60
2015,10,15,01,10,6.60
2015,10,15,01,11,6.60
2015,10,15,01,12,6.60
2015,10,15,01,13,6.60
2015,10,15,01,14,6.60
2015,10,15,01,15,6.60
2015,10,15,01,16,6.60
2015,10,15,01,17,6.60
2015,10,15,01,18,6.60
2015,10,15,01,19,6.60
2015,10,15,01,20,6.60
2015,10,15,01,21,6.60
2015,10,15,01,22,6.60
2015,10,15,01,23,6.60
2015,10,15,01,24,6.60
2015,10,15,01,25,6.60
2015,10,15,01,26,6.60
2015,10,15,01,27,6.60
2015,10,15,01,28,6.60
2015,10,15,01,29,6.60
2015,10,15,01,30,6.60
2015,10,15,01,31,6.50
2015,10,15,01,32,6.60
2015,10,15,01,33,6.60
2015,10,15,01,34,6.70
2015,10,15,01,35,6.80
2015,10,15,01,36,6.90
2015,10,15,01,37,6.90
2015,10,15,01,38,6.90
2015,10,15,01,39,6.90
2015,10,15,01,40,6.80
2015,10,15,01,41,6.80
2015,10,15,01,42,6.80
2015,10,15,01,43,6.70
2015,10,15,01,44,6.70
2015,10,15,01,45,6.70
2015,10,15,01,46,6.80
2015,10,15,01,47,6.90
2015,10,15,01,48,7.00
2015,10,15,01,49,7.00
2015,10,15,01,50,7.10
2015,10,15,01,51,7.10
2015,10,15,01,52,7.00
2015,10,15,01,53,7.00
2015,10,15,01,54,6.90
2015,10,15,01,55,6.90
2015,10,15,01,56,6.80
2015,10,15,01,57,6.80
2015,10,15,01,58,6.70
2015,10,15,01,59,6.70
2015,10,15,02,00,6.70
2015,10,15,02,01,6.70
2015,10,15,02,02,6.60
2015,10,15,02,03,6.60
2015,10,15,02,04,6.50
2015,10,15,02,05,6.50
2015,10,15,02,06,6.50
2015,10,15,02,07,6.40
2015,10,15,02,08,6.40
2015,10,15,02,09,6.40
2015,10,15,02,10,6.40
2015,10,15,02,11,6.40
2015,10,15,02,12,6.40
2015,10,15,02,13,6.40
2015,10,15,02,14,6.40
2015,10,15,02,15,6.50
2015,10,15,02,16,6.50
2015,10,15,02,17,6.60
2015,10,15,02,18,6.60
2015,10,15,02,19,6.60
2015,10,15,02,20,6.60
2015,10,15,02,21,6.60
2015,10,15,02,22,6.60
2015,10,15,02,23,6.60
2015,10,15,02,24,6.60
2015,10,15,02,25,6.60
2015,10,15,02,26,6.60
2015,10,15,02,27,6.60
2015,10,15,02,28,6.60
2015,10,15,02,29,6.60
2015,10,15,02,30,6.60
2015,10,15,02,31,6.60
2015,10,15,02,32,6.60
2015,10,15,02,33,6.60
2015,10,15,02,34,6.60
2015,10,15,02,35,6.70
2015,10,15,02,36,6.70
2015,10,15,02,37,6.80
2015,10,15,02,38,6.80
2015,10,15,02,39,6.90
2015,10,15,02,40,7.00
2015,10,15,02,41,7.00
2015,10,15,02,42,7.10
2015,10,15,02,43,7.10
2015,10,15,02,44,7.10
2015,10,15,02,45,7.00
2015,10,15,02,46,7.00
2015,10,15,02,47,6.90
2015,10,15,02,48,6.90
2015,10,15,02,49,6.80
2015,10,15,02,50,6.70
2015,10,15,02,51,6.60
2015,10,15,02,52,6.50
2015,10,15,02,53,6.50
2015,10,15,02,54,6.40
2015,10,15,02,55,6.40
2015,10,15,02,56,6.30
2015,10,15,02,57,6.30
2015,10,15,02,58,6.20
2015,10,15,02,59,6.20
2015,10,15,03,00,6.20
2015,10,15,03,01,6.10
2015,10,15,03,02,6.10
2015,10,15,03,03,6.10
2015,10,15,03,04,6.00
2015,10,15,03,05,6.00
2015,10,15,03,06,6.00
2015,10,15,03,07,6.00
2015,10,15,03,08,6.00
2015,10,15,03,09,6.00
2015,10,15,03,10,6.00
2015,10,15,03,11,6.00
2015,10,15,03,12,6.00
2015,10,15,03,13,6.00
2015,10,15,03,14,6.00
2015,10,15,03,15,6.00
2015,10,15,03,16,5.90
2015,10,15,03,17,5.90
2015,10,15,03,18,5.90
2015,10,15,03,19,5.90
2015,10,15,03,20,5.80
2015,10,15,03,21,5.80
2015,10,15,03,22,5.80
2015,10,15,03,23,5.80
2015,10,15,03,24,5.80
2015,10,15,03,25,5.80
2015,10,15,03,26,5.80
2015,10,15,03,27,5.80
2015,10,15,03,28,5.80
2015,10,15,03,29,5.80
2015,10,15,03,30,5.80
2015,10,15,03,31,5.70
2015,10,15,03,32,5.70
2015,10,15,03,33,5.70
2015,10,15,03,34,5.70
2015,10,15,03,35,5.70
2015,10,15,03,36,5.70
2015,10,15,03,37,5.70
2015,10,15,03,38,5.70
2015,10,15,03,39,5.70
2015,10,15,03,40,5.70
2015,10,15,03,41,5.70
2015,10,15,03,42,5.70
2015,10,15,03,43,5.70
2015,10,15,03,44,5.70
2015,10,15,03,45,5.60
2015,10,15,03,46,5.60
2015,10,15,03,47,5.60
2015,10,15,03,48,5.60
2015,10,15,03,49,5.60
2015,10,15,03,50,5.60
2015,10,15,03,51,5.50
2015,10,15,03,52,5.50
2015,10,15,03,53,5.50
2015,10,15,03,54,5.50
2015,10,15,03,55,5.50
2015,10,15,03,56,5.50
2015,10,15,03,57,5.60
2015,10,15,03,58,5.60
2015,10,15,03,59,5.60
2015,10,15,04,00,5.60
2015,10,15,04,01,5.60
2015,10,15,04,02,5.50
2015,10,15,04,03,5.50
2015,10,15,04,04,5.50
2015,10,15,04,05,5.50
2015,10,15,04,06,5.50
2015,10,15,04,07,5.40
2015,10,15,04,08,5.40
2015,10,15,04,09,5.40
2015,10,15,04,10,5.40
2015,10,15,04,11,5.40
2015,10,15,04,12,5.40
2015,10,15,04,13,5.40
2015,10,15,04,14,5.40
2015,10,15,04,15,5.30
2015,10,15,04,16,5.30
2015,10,15,04,17,5.30
2015,10,15,04,18,5.30
2015,10,15,04,19,5.30
2015,10,15,04,20,5.30
2015,10,15,04,21,5.30
2015,10,15,04,22,5.30
2015,10,15,04,23,5.30
2015,10,15,04,24,5.30
2015,10,15,04,25,5.30
2015,10,15,04,26,5.30
2015,10,15,04,27,5.30
2015,10,15,04,28,5.30
2015,10,15,04,29,5.20
2015,10,15,04,30,5.20
2015,10,15,04,31,5.20
2015,10,15,04,32,5.20
2015,10,15,04,33,5.20
2015,10,15,04,34,5.10
2015,10,15,04,35,5.10
2015,10,15,04,36,5.10
2015,10,15,04,37,5.10
2015,10,15,04,38,5.10
2015,10,15,04,39,5.10
2015,10,15,04,40,5.10
2015,10,15,04,41,5.10
2015,10,15,04,42,5.20
2015,10,15,04,43,5.20
2015,10,15,04,44,5.20
2015,10,15,04,45,5.20
2015,10,15,04,46,5.20
2015,10,15,04,47,5.20
2015,10,15,04,48,5.10
2015,10,15,04,49,5.10
2015,10,15,04,50,5.10
2015,10,15,04,51,5.10
2015,10,15,04,52,5.00
2015,10,15,04,53,5.00
2015,10,15,04,54,5.00
2015,10,15,04,55,5.00
2015,10,15,04,56,4.90
2015,10,15,04,57,4.90
2015,10,15,04,58,4.90
2015,10,15,04,59,4.90
2015,10,15,05,00,4.90
2015,10,15,05,01,4.90
2015,10,15,05,02,4.80
2015,10,15,05,03,4.80
2015,10,15,05,04,4.80
2015,10,15,05,05,4.80
2015,10,15,05,06,4.80
2015,10,15,05,07,4.80
2015,10,15,05,08,4.80
2015,10,15,05,09,4.80
2015,10,15,05,10,4.80
2015,10,15,05,11,4.80
2015,10,15,05,12,4.80
2015,10,15,05,13,4.80
2015,10,15,05,14,4.80
2015,10,15,05,15,4.80
2015,10,15,05,16,4.80
2015,10,15,05,17,4.80
2015,10,15,05,18,4.80
2015,10,15,05,19,4.80
2015,10,15,05,20,4.80
2015,10,15,05,21,4.70
2015,10,15,05,22,4.70
2015,10,15,05,23,4.70
2015,10,15,05,24,4.70
2015,10,15,05,25,4.70
2015,10,15,05,26,4.70
2015,10,15,05,27,4.70
2015,10,15,05,28,4.70
2015,10,15,05,29,4.70
2015,10,15,05,30,4.70
2015,10,15,05,31,4.70
2015,10,15,05,32,4.70
2015,10,15,05,33,4.70
2015,10,15,05,34,4.70
2015,10,15,05,35,4.70
2015,10,15,05,36,4.70
2015,10,15,05,37,4.70
2015,10,15,05,38,4.70
2015,10,15,05,39,4.60
2015,10,15,05,40,4.60
2015,10,15,05,41,4.60
2015,10,15,05,42,4.60
2015,10,15,05,43,4.60
2015,10,15,05,44,4.60
2015,10,15,05,45,4.60
2015,10,15,05,46,4.60
2015,10,15,05,47,4.60
2015,10,15,05,48,4.60
2015,10,15,05,49,4.60
2015,10,15,05,50,4.60
2015,10,15,05,51,4.60
2015,10,15,05,52,4.70
2015,10,15,05,53,4.70
2015,10,15,05,54,4.70
2015,10,15,05,55,4.70
2015,10,15,05,56,4.70
2015,10,15,05,57,4.70
2015,10,15,05,58,4.60
2015,10,15,05,59,4.60
2015,10,15,06,00,4.60
2015,10,15,06,01,4.60
2015,10,15,06,02,4.60
2015,10,15,06,03,4.50
2015,10,15,06,04,4.50
2015,10,15,06,05,4.50
2015,10,15,06,06,4.50
2015,10,15,06,07,4.50
2015,10,15,06,08,4.40
2015,10,15,06,09,4.40
2015,10,15,06,10,4.40
2015,10,15,06,11,4.40
2015,10,15,06,12,4.40
2015,10,15,06,13,4.40
2015,10,15,06,14,4.40
2015,10,15,06,15,4.40
2015,10,15,06,16,4.40
2015,10,15,06,17,4.40
2015,10,15,06,18,4.40
2015,10,15,06,19,4.40
2015,10,15,06,20,4.40
2015,10,15,06,21,4.30
2015,10,15,06,22,4.30
2015,10,15,06,23,4.30
2015,10,15,06,24,4.30
2015,10,15,06,25,4.30
2015,10,15,06,26,4.30
2015,10,15,06,27,4.30
2015,10,15,06,28,4.30
2015,10,15,06,29,4.30
2015,10,15,06,30,4.30
2015,10,15,06,31,4.30
2015,10,15,06,32,4.30
2015,10,15,06,33,4.30
2015,10,15,06,34,4.30
2015,10,15,06,35,4.30
2015,10,15,06,36,4.30
2015,10,15,06,37,4.30
2015,10,15,06,38,4.40
2015,10,15,06,39,4.40
2015,10,15,06,40,4.40
2015,10,15,06,41,4.50
2015,10,15,06,42,4.50
2015,10,15,06,43,4.50
2015,10,15,06,44,4.60
2015,10,15,06,45,4.60
2015,10,15,06,46,4.60
2015,10,15,06,47,4.60
2015,10,15,06,48,4.60
2015,10,15,06,49,4.60
2015,10,15,06,50,4.60
2015,10,15,06,51,4.60
2015,10,15,06,52,4.60
2015,10,15,06,53,4.60
2015,10,15,06,54,4.60
2015,10,15,06,55,4.60
2015,10,15,06,56,4.60
2015,10,15,06,57,4.60
2015,10,15,06,58,4.60
2015,10,15,06,59,4.60
2015,10,15,07,00,4.60
2015,10,15,07,01,4.60
2015,10,15,07,02,4.50
2015,10,15,07,03,4.50
2015,10,15,07,04,4.50
2015,10,15,07,05,4.50
2015,10,15,07,06,4.50
2015,10,15,07,07,4.50
2015,10,15,07,08,4.40
2015,10,15,07,09,4.40
2015,10,15,07,10,4.40
2015,10,15,07,11,4.40
2015,10,15,07,12,4.40
2015,10,15,07,13,4.40
2015,10,15,07,14,4.40
2015,10,15,07,15,4.40
2015,10,15,07,16,4.40
2015,10,15,07,17,4.40
2015,10,15,07,18,4.40
2015,10,15,07,19,4.40
2015,10,15,07,20,4.40
2015,10,15,07,21,4.40
2015,10,15,07,22,4.40
2015,10,15,07,23,4.40
2015,10,15,07,24,4.40
2015,10,15,07,25,4.40
2015,10,15,07,26,4.40
2015,10,15,07,27,4.40
2015,10,15,07,28,4.50
2015,10,15,07,29,4.40
2015,10,15,07,30,4.40
2015,10,15,07,31,4.50
2015,10,15,07,32,4.50
2015,10,15,07,33,4.50
2015,10,15,07,34,4.50
2015,10,15,07,35,4.50
2015,10,15,07,36,4.50
2015,10,15,07,37,4.50
2015,10,15,07,38,4.50
2015,10,15,07,39,4.50
2015,10,15,07,40,4.50
2015,10,15,07,41,4.50
2015,10,15,07,42,4.40
2015,10,15,07,43,4.40
2015,10,15,07,44,4.40
2015,10,15,07,45,4.40
2015,10,15,07,46,4.40
2015,10,15,07,47,4.40
2015,10,15,07,48,4.40
2015,10,15,07,49,4.40
2015,10,15,07,50,4.40
2015,10,15,07,51,4.40
2015,10,15,07,52,4.40
2015,10,15,07,53,4.40
2015,10,15,07,54,4.40
2015,10,15,07,55,4.40
2015,10,15,07,56,4.40
2015,10,15,07,57,4.40
2015,10,15,07,58,4.40
2015,10,15,07,59,4.40
2015,10,15,08,00,4.40
2015,10,15,08,01,4.40
2015,10,15,08,02,4.40
2015,10,15,08,03,4.40
2015,10,15,08,04,4.40
2015,10,15,08,05,4.30
2015,10,15,08,06,4.30
2015,10,15,08,07,4.40
2015,10,15,08,08,4.40
2015,10,15,08,09,4.40
2015,10,15,08,10,4.40
2015,10,15,08,11,4.40
2015,10,15,08,12,4.40
2015,10,15,08,13,4.40
2015,10,15,08,14,4.50
2015,10,15,08,15,4.40
2015,10,15,08,16,4.50
2015,10,15,08,17,4.50
2015,10,15,08,18,4.50
2015,10,15,08,19,4.50
2015,10,15,08,20,4.50
2015,10,15,08,21,4.50
2015,10,15,08,22,4.50
2015,10,15,08,23,4.50
2015,10,15,08,24,4.50
2015,10,15,08,25,4.60
2015,10,15,08,26,4.60
2015,10,15,08,27,4.60
2015,10,15,08,28,4.60
2015,10,15,08,29,4.70
2015,10,15,08,30,4.70
2015,10,15,08,31,4.70
2015,10,15,08,32,4.70
2015,10,15,08,33,4.80
2015,10,15,08,34,4.80
2015,10,15,08,35,4.80
2015,10,15,08,36,4.80
2015,10,15,08,37,4.90
2015,10,15,08,38,4.90
2015,10,15,08,39,4.90
2015,10,15,08,40,4.90
2015,10,15,08,41,4.90
2015,10,15,08,42,4.90
2015,10,15,08,43,5.00
2015,10,15,08,44,5.00
2015,10,15,08,45,5.00
2015,10,15,08,46,5.10
2015,10,15,08,47,5.10
2015,10,15,08,48,5.10
2015,10,15,08,49,5.10
2015,10,15,08,50,5.20
2015,10,15,08,51,5.20
2015,10,15,08,52,5.20
2015,10,15,08,53,5.20
2015,10,15,08,54,5.30
2015,10,15,08,55,5.30
2015,10,15,08,56,5.30
2015,10,15,08,57,5.30
2015,10,15,08,58,5.30
2015,10,15,08,59,5.40
2015,10,15,09,00,5.40
2015,10,15,09,01,5.40
2015,10,15,09,02,5.50
2015,10,15,09,03,5.50
2015,10,15,09,04,5.60
2015,10,15,09,05,5.60
2015,10,15,09,06,5.70
2015,10,15,09,07,5.70
2015,10,15,09,08,5.70
2015,10,15,09,09,5.80
2015,10,15,09,10,5.80
2015,10,15,09,11,5.90
2015,10,15,09,12,5.90
2015,10,15,09,13,6.00
2015,10,15,09,14,6.10
2015,10,15,09,15,6.10
2015,10,15,09,16,6.20
2015,10,15,09,17,6.30
2015,10,15,09,18,6.30
2015,10,15,09,19,6.40
2015,10,15,09,20,6.50
2015,10,15,09,21,6.50
2015,10,15,09,22,6.60
2015,10,15,09,23,6.70
2015,10,15,09,24,6.80
2015,10,15,09,25,6.80
2015,10,15,09,26,6.90
2015,10,15,09,27,7.00
2015,10,15,09,28,7.00
2015,10,15,09,29,7.10
2015,10,15,09,30,7.10
2015,10,15,09,31,7.20
2015,10,15,09,32,7.30
2015,10,15,09,33,7.30
2015,10,15,09,34,7.40
2015,10,15,09,35,7.40
2015,10,15,09,36,7.50
2015,10,15,09,37,7.50
2015,10,15,09,38,7.60
2015,10,15,09,39,7.70
2015,10,15,09,40,7.70
2015,10,15,09,41,7.80
2015,10,15,09,42,7.80
2015,10,15,09,43,7.80
2015,10,15,09,44,7.90
2015,10,15,09,45,8.00
2015,10,15,09,46,8.00
2015,10,15,09,47,8.10
2015,10,15,09,48,8.10
2015,10,15,09,49,8.20
2015,10,15,09,50,8.20
2015,10,15,09,51,8.30
2015,10,15,09,52,8.30
2015,10,15,09,53,8.30
2015,10,15,09,54,8.40
2015,10,15,09,55,8.40
2015,10,15,09,56,8.40
2015,10,15,09,57,8.50
2015,10,15,09,58,8.50
2015,10,15,09,59,8.50
2015,10,15,10,00,8.60
2015,10,15,10,01,8.60
2015,10,15,10,02,8.60
2015,10,15,10,03,8.70
2015,10,15,10,04,8.70
2015,10,15,10,05,8.70
2015,10,15,10,06,8.70
2015,10,15,10,07,8.80
2015,10,15,10,08,8.80
2015,10,15,10,09,8.80
2015,10,15,10,10,8.90
2015,10,15,10,11,8.90
2015,10,15,10,12,9.00
2015,10,15,10,13,9.00
2015,10,15,10,14,9.10
2015,10,15,10,15,9.10
2015,10,15,10,16,9.20
2015,10,15,10,17,9.20
2015,10,15,10,18,9.30
2015,10,15,10,19,9.30
2015,10,15,10,20,9.40
2015,10,15,10,21,9.50
2015,10,15,10,22,9.50
2015,10,15,10,23,9.60
2015,10,15,10,24,9.60
2015,10,15,10,25,9.70
2015,10,15,10,26,9.70
2015,10,15,10,27,9.80
2015,10,15,10,28,9.80
2015,10,15,10,29,9.90
2015,10,15,10,30,9.90
2015,10,15,10,31,9.90
2015,10,15,10,32,9.90
2015,10,15,10,33,9.90
2015,10,15,10,34,9.90
2015,10,15,10,35,9.90
2015,10,15,10,36,9.90
2015,10,15,10,37,9.90
2015,10,15,10,38,9.90
2015,10,15,10,39,9.90
2015,10,15,10,40,10.00
2015,10,15,10,41,10.00
2015,10,15,10,42,10.00
2015,10,15,10,43,10.00
2015,10,15,10,44,10.10
2015,10,15,10,45,10.10
2015,10,15,10,46,10.10
2015,10,15,10,47,10.10
2015,10,15,10,48,10.10
2015,10,15,10,49,10.10
2015,10,15,10,50,10.10
2015,10,15,10,51,10.10
2015,10,15,10,52,10.20
2015,10,15,10,53,10.20
2015,10,15,10,54,10.20
2015,10,15,10,55,10.20
2015,10,15,10,56,10.30
2015,10,15,10,57,10.30
2015,10,15,10,58,10.30
2015,10,15,10,59,10.30
2015,10,15,11,00,10.30
2015,10,15,11,01,10.30
2015,10,15,11,02,10.40
2015,10,15,11,03,10.40
2015,10,15,11,04,10.40
2015,10,15,11,05,10.40
2015,10,15,11,06,10.40
2015,10,15,11,07,10.50
2015,10,15,11,08,10.50
2015,10,15,11,09,10.50
2015,10,15,11,10,10.50
2015,10,15,11,11,10.60
2015,10,15,11,12,10.60
2015,10,15,11,13,10.60
2015,10,15,11,14,10.60
2015,10,15,11,15,10.70
2015,10,15,11,16,10.70
2015,10,15,11,17,10.80
2015,10,15,11,18,10.80
2015,10,15,11,19,10.80
2015,10,15,11,20,10.90
2015,10,15,11,21,10.90
2015,10,15,11,22,11.00
2015,10,15,11,23,11.10
2015,10,15,11,24,11.10
2015,10,15,11,25,11.20
2015,10,15,11,26,11.20
2015,10,15,11,27,11.30
2015,10,15,11,28,11.30
2015,10,15,11,29,11.40
2015,10,15,11,30,11.40
2015,10,15,11,31,11.40
2015,10,15,11,32,11.50
2015,10,15,11,33,11.50
2015,10,15,11,34,11.60
2015,10,15,11,35,11.60
2015,10,15,11,36,11.60
2015,10,15,11,37,11.60
2015,10,15,11,38,11.60
2015,10,15,11,39,11.70
2015,10,15,11,40,11.70
2015,10,15,11,41,11.70
2015,10,15,11,42,11.70
2015,10,15,11,43,11.80
2015,10,15,11,44,11.80
2015,10,15,11,45,11.80
2015,10,15,11,46,11.90
2015,10,15,11,47,11.90
2015,10,15,11,48,12.00
2015,10,15,11,49,12.00
2015,10,15,11,50,12.00
2015,10,15,11,51,12.10
2015,10,15,11,52,12.10
2015,10,15,11,53,12.10
2015,10,15,11,54,12.10
2015,10,15,11,55,12.10
2015,10,15,11,56,12.10
2015,10,15,11,57,12.20
2015,10,15,11,58,12.20
2015,10,15,11,59,12.20
2015,10,15,12,00,12.20
2015,10,15,12,01,12.20
2015,10,15,12,02,12.20
2015,10,15,12,03,12.20
2015,10,15,12,04,12.20
2015,10,15,12,05,12.10
2015,10,15,12,06,12.10
2015,10,15,12,07,12.10
2015,10,15,12,08,12.10
2015,10,15,12,09,12.10
2015,10,15,12,10,12.10
2015,10,15,12,11,12.10
2015,10,15,12,12,12.10
2015,10,15,12,13,12.10
2015,10,15,12,14,12.10
2015,10,15,12,15,12.10
2015,10,15,12,16,12.10
2015,10,15,12,17,12.10
2015,10,15,12,18,12.10
2015,10,15,12,19,12.20
2015,10,15,12,20,12.20
2015,10,15,12,21,12.20
2015,10,15,12,22,12.20
2015,10,15,12,23,12.20
2015,10,15,12,24,12.20
2015,10,15,12,25,12.30
2015,10,15,12,26,12.30
2015,10,15,12,27,12.30
2015,10,15,12,28,12.30
2015,10,15,12,29,12.30
2015,10,15,12,30,12.30
2015,10,15,12,31,12.40
2015,10,15,12,32,12.40
2015,10,15,12,33,12.40
2015,10,15,12,34,12.40
2015,10,15,12,35,12.40
2015,10,15,12,36,12.50
2015,10,15,12,37,12.50
2015,10,15,12,38,12.60
2015,10,15,12,39,12.60
2015,10,15,12,40,12.60
2015,10,15,12,41,12.60
2015,10,15,12,42,12.60
2015,10,15,12,43,12.60
2015,10,15,12,44,12.60
2015,10,15,12,45,12.60
2015,10,15,12,46,12.70
2015,10,15,12,47,12.70
2015,10,15,12,48,12.70
2015,10,15,12,49,12.70
2015,10,15,12,50,12.70
2015,10,15,12,51,12.70
2015,10,15,12,52,12.80
2015,10,15,12,53,12.80
2015,10,15,12,54,12.80
2015,10,15,12,55,12.90
2015,10,15,12,56,12.90
2015,10,15,12,57,13.00
2015,10,15,12,58,13.00
2015,10,15,12,59,13.10
2015,10,15,13,00,13.10
2015,10,15,13,01,13.20
2015,10,15,13,02,13.20
2015,10,15,13,03,13.30
2015,10,15,13,04,13.30
2015,10,15,13,05,13.40
2015,10,15,13,06,13.40
2015,10,15,13,07,13.50
2015,10,15,13,08,13.50
2015,10,15,13,09,13.60
2015,10,15,13,10,13.60
2015,10,15,13,11,13.60
2015,10,15,13,12,13.60
2015,10,15,13,13,13.70
2015,10,15,13,14,13.70
2015,10,15,13,15,13.70
2015,10,15,13,16,13.80
2015,10,15,13,17,13.80
2015,10,15,13,18,13.80
2015,10,15,13,19,13.90
2015,10,15,13,20,13.90
2015,10,15,13,21,13.90
2015,10,15,13,22,13.80
2015,10,15,13,23,13.80
2015,10,15,13,24,13.80
2015,10,15,13,25,13.80
2015,10,15,13,26,13.80
2015,10,15,13,27,13.80
2015,10,15,13,28,13.80
2015,10,15,13,29,13.80
2015,10,15,13,30,13.80
2015,10,15,13,31,13.80
2015,10,15,13,32,13.80
2015,10,15,13,33,13.80
2015,10,15,13,34,13.80
2015,10,15,13,35,13.80
2015,10,15,13,36,13.80
2015,10,15,13,37,13.80
2015,10,15,13,38,13.80
2015,10,15,13,39,13.80
2015,10,15,13,40,13.80
2015,10,15,13,41,13.80
2015,10,15,13,42,13.80
2015,10,15,13,43,13.90
2015,10,15,13,44,13.90
2015,10,15,13,45,13.90
2015,10,15,13,46,14.00
2015,10,15,13,47,14.00
2015,10,15,13,48,14.10
2015,10,15,13,49,14.10
2015,10,15,13,50,14.10
2015,10,15,13,51,14.20
2015,10,15,13,52,14.20
2015,10,15,13,53,14.20
2015,10,15,13,54,14.20
2015,10,15,13,55,14.30
2015,10,15,13,56,14.30
2015,10,15,13,57,14.30
2015,10,15,13,58,14.30
2015,10,15,13,59,14.30
2015,10,15,14,00,14.30
2015,10,15,14,01,14.30
2015,10,15,14,02,14.30
2015,10,15,14,03,14.20
2015,10,15,14,04,14.20
2015,10,15,14,05,14.20
2015,10,15,14,06,14.20
2015,10,15,14,07,14.20
2015,10,15,14,08,14.20
2015,10,15,14,09,14.20
2015,10,15,14,10,14.20
2015,10,15,14,11,14.20
2015,10,15,14,12,14.20
2015,10,15,14,13,14.20
2015,10,15,14,14,14.10
2015,10,15,14,15,14.10
2015,10,15,14,16,14.10
2015,10,15,14,17,14.10
2015,10,15,14,18,14.00
2015,10,15,14,19,14.00
2015,10,15,14,20,14.00
2015,10,15,14,21,13.90
2015,10,15,14,22,13.90
2015,10,15,14,23,13.90
2015,10,15,14,24,13.90
2015,10,15,14,25,13.80
2015,10,15,14,26,13.80
2015,10,15,14,27,13.80
2015,10,15,14,28,13.80
2015,10,15,14,29,13.80
2015,10,15,14,30,13.80
2015,10,15,14,31,13.80
2015,10,15,14,32,13.80
2015,10,15,14,33,13.80
2015,10,15,14,34,13.80
2015,10,15,14,35,13.80
2015,10,15,14,36,13.80
2015,10,15,14,37,13.80
2015,10,15,14,38,13.80
2015,10,15,14,39,13.90
2015,10,15,14,40,13.90
2015,10,15,14,41,14.00
2015,10,15,14,42,14.00
2015,10,15,14,43,14.10
2015,10,15,14,44,14.10
2015,10,15,14,45,14.10
2015,10,15,14,46,14.10
2015,10,15,14,47,14.10
2015,10,15,14,48,14.20
2015,10,15,14,49,14.20
2015,10,15,14,50,14.20
2015,10,15,14,51,14.30
2015,10,15,14,52,14.30
2015,10,15,14,53,14.30
2015,10,15,14,54,14.30
2015,10,15,14,55,14.30
2015,10,15,14,56,14.30
2015,10,15,14,57,14.30
2015,10,15,14,58,14.30
2015,10,15,14,59,14.30
2015,10,15,15,00,14.30
2015,10,15,15,01,14.30
2015,10,15,15,02,14.20
2015,10,15,15,03,14.20
2015,10,15,15,04,14.20
2015,10,15,15,05,14.30
2015,10,15,15,06,14.30
2015,10,15,15,07,14.30
2015,10,15,15,08,14.30
2015,10,15,15,09,14.30
2015,10,15,15,10,14.30
2015,10,15,15,11,14.30
2015,10,15,15,12,14.30
2015,10,15,15,13,14.30
2015,10,15,15,14,14.30
2015,10,15,15,15,14.30
2015,10,15,15,16,14.30
2015,10,15,15,17,14.30
2015,10,15,15,18,14.30
2015,10,15,15,19,14.30
2015,10,15,15,20,14.40
2015,10,15,15,21,14.40
2015,10,15,15,22,14.40
2015,10,15,15,23,14.40
2015,10,15,15,24,14.50
2015,10,15,15,25,14.50
2015,10,15,15,26,14.50
2015,10,15,15,27,14.60
2015,10,15,15,28,14.70
2015,10,15,15,29,14.70
2015,10,15,15,30,14.80
2015,10,15,15,31,14.80
2015,10,15,15,32,14.90
2015,10,15,15,33,14.90
2015,10,15,15,34,15.00
2015,10,15,15,35,15.10
2015,10,15,15,36,15.10
2015,10,15,15,37,15.20
2015,10,15,15,38,15.20
2015,10,15,15,39,15.20
2015,10,15,15,40,15.20
2015,10,15,15,41,15.20
2015,10,15,15,42,15.20
2015,10,15,15,43,15.20
2015,10,15,15,44,15.20
2015,10,15,15,45,15.20
2015,10,15,15,46,15.20
2015,10,15,15,47,15.20
2015,10,15,15,48,15.20
2015,10,15,15,49,15.20
2015,10,15,15,50,15.20
2015,10,15,15,51,15.20
2015,10,15,15,52,15.20
2015,10,15,15,53,15.20
2015,10,15,15,54,15.20
2015,10,15,15,55,15.20
2015,10,15,15,56,15.20
2015,10,15,15,57,15.20
2015,10,15,15,58,15.20
2015,10,15,15,59,15.20
2015,10,15,16,00,15.20
2015,10,15,16,01,15.20
2015,10,15,16,02,15.20
2015,10,15,16,03,15.30
2015,10,15,16,04,15.30
2015,10,15,16,05,15.30
2015,10,15,16,06,15.30
2015,10,15,16,07,15.30
2015,10,15,16,08,15.30
2015,10,15,16,09,15.30
2015,10,15,16,10,15.30
2015,10,15,16,11,15.30
2015,10,15,16,12,15.30
2015,10,15,16,13,15.40
2015,10,15,16,14,15.40
2015,10,15,16,15,15.40
2015,10,15,16,16,15.40
2015,10,15,16,17,15.50
2015,10,15,16,18,15.50
2015,10,15,16,19,15.50
2015,10,15,16,20,15.50
2015,10,15,16,21,15.50
2015,10,15,16,22,15.50
2015,10,15,16,23,15.50
2015,10,15,16,24,15.60
2015,10,15,16,25,15.60
2015,10,15,16,26,15.60
2015,10,15,16,27,15.60
2015,10,15,16,28,15.60
2015,10,15,16,29,15.60
2015,10,15,16,30,15.60
2015,10,15,16,31,15.60
2015,10,15,16,32,15.60
2015,10,15,16,33,15.60
2015,10,15,16,34,15.60
2015,10,15,16,35,15.60
2015,10,15,16,36,15.60
2015,10,15,16,37,15.60
2015,10,15,16,38,15.60
2015,10,15,16,39,15.60
2015,10,15,16,40,15.60
2015,10,15,16,41,15.70
2015,10,15,16,42,15.70
2015,10,15,16,43,15.70
2015,10,15,16,44,15.70
2015,10,15,16,45,15.70
2015,10,15,16,46,15.70
2015,10,15,16,47,15.70
2015,10,15,16,48,15.70
2015,10,15,16,49,15.70
2015,10,15,16,50,15.70
2015,10,15,16,51,15.70
2015,10,15,16,52,15.70
2015,10,15,16,53,15.70
2015,10,15,16,54,15.70
2015,10,15,16,55,15.70
2015,10,15,16,56,15.70
2015,10,15,16,57,15.70
2015,10,15,16,58,15.70
2015,10,15,16,59,15.70
2015,10,15,17,00,15.70
2015,10,15,17,01,15.80
2015,10,15,17,02,15.80
2015,10,15,17,03,15.80
2015,10,15,17,04,15.80
2015,10,15,17,05,15.80
2015,10,15,17,06,15.70
2015,10,15,17,07,15.70
2015,10,15,17,08,15.70
2015,10,15,17,09,15.70
2015,10,15,17,10,15.70
2015,10,15,17,11,15.70
2015,10,15,17,12,15.70
2015,10,15,17,13,15.70
2015,10,15,17,14,15.70
2015,10,15,17,15,15.70
2015,10,15,17,16,15.60
2015,10,15,17,17,15.60
2015,10,15,17,18,15.60
2015,10,15,17,19,15.50
2015,10,15,17,20,15.40
2015,10,15,17,21,15.40
2015,10,15,17,22,15.40
2015,10,15,17,23,15.30
2015,10,15,17,24,15.30
2015,10,15,17,25,15.30
2015,10,15,17,26,15.30
2015,10,15,17,27,15.20
2015,10,15,17,28,15.20
2015,10,15,17,29,15.20
2015,10,15,17,30,15.20
2015,10,15,17,31,15.10
2015,10,15,17,32,15.10
2015,10,15,17,33,15.10
2015,10,15,17,34,15.00
2015,10,15,17,35,15.00
2015,10,15,17,36,14.90
2015,10,15,17,37,14.90
2015,10,15,17,38,14.90
2015,10,15,17,39,14.80
2015,10,15,17,40,14.80
2015,10,15,17,41,14.80
2015,10,15,17,42,14.80
2015,10,15,17,43,14.80
2015,10,15,17,44,14.70
2015,10,15,17,45,14.70
2015,10,15,17,46,14.70
2015,10,15,17,47,14.70